Curtin Springs, Northern Territory

7:52 PM ACST on July 24, 2016 (GMT +0930)
Ayers Rock (Connellan) | | Change Station

Elev 1627 ft 25.19 °S, 130.98 °E | Updated 22 minutes ago

Clear
Clear
59 °F
Feels Like 59 °F
N
7
Wind Variable Wind from South

Today
High -- | Low -- °F
--% Chance of Precip.
Yesterday
High -- | Low -- °F
Precip. -- in
Pressure 30.18 in
Visibility 6.2 miles
Clouds
Dew Point 32 °F
Humidity 36%
Rainfall 0.00 in
Snow Depth Not available.
7:24 AM 6:14 PM
Waning Gibbous, 77% visible
METAR YAYE 241000Z AUTO 18006KT 9999 // NCD 15/M00 Q1022
Pressure 30.18 in
Visibility 6.2 miles
Clouds
Dew Point 32 °F
Humidity 36%
Rainfall 0.00 in
Snow Depth Not available.
7:24 AM 6:14 PM
Waning Gibbous, 77% visible
METAR YAYE 241000Z AUTO 18006KT 9999 // NCD 15/M00 Q1022

10-Day Weather Forecast

No radar image for this location.
×

Almanac

Astronomy

Jul. 24, 2016 Rise Set
Actual Time
Civil Twilight
Nautical Twilight
Astronomical Twilight
Moon
Length of Visible Light
Length of Day
Tomorrow will be .
, % of the Moon is Illuminated

Today's Extremes

Country Highs Country Lows

Community

WunderPhotos

Upload Photos

1,927,039 photos uploaded!

WunderBlog® & News

Nearby

Air Quality

  Air Quality AQ Index Pollutant
Not available.

Snow Depth

Station Depth Elevation

Earthquake Activity

City Distance Mag. Time & Date
Minimum magnitude displayed is 2.5.

Coastal Water Temperatures

Place Temperature

Stations

Nearby Weather Stations

Station Location Temp. Windchill Dew Point Humidity Wind Precip. Elev Updated Type